Wind_Speed
8 13 15 23 19 22 29 26 28 28 26 25 24 24 24 24 25 26 26 26 25 27
7 11 19 19 23 25 21 23 27 25 26 27 27 28 28 28 29 29 29 30 30 30
10 16 19 22 23 20 18 19 19 20 22 23 22 25 27 28 29 32 34 34 36 35
17 20 23 22 19 20 21 24 26 29 31 32 33 35 35 35 36 34 32 33 37 39
19 21 21 23 24 26 27 28 28 29 30 30 30 31 31 32 32 36 39 32 33 26
21 23 23 25 25 26 27 27 28 29 30 32 32 33 33 30 27 29 34 39 40 43
19 21 23 25 26 27 28 29 31 32 32 31 31 30 29 32 34 35 33 33 36 38
20 22 24 26 28 29 29 31 32 31 29 34 32 29 30 31 33 37 40 41 41 42
22 24 25 26 30 30 32 33 31 30 36 32 30 29 33 37 42 44 45 43 41 40
24 26 27 30 31 30 34 35 37 35 31 31 35 38 36 41 38 40 38 36 35 41
26 26 29 32 30 32 34 39 36 34 35 38 38 42 42 34 38 43 44 44 44 43
25 27 30 30 30 33 38 36 35 33 41 41 42 37 38 42 38 40 44 43 40 36
24 27 27 28 32 36 34 32 38 43 40 36 42 41 35 35 39 42 43 45 47 48
24 25 26 31 33 31 33 38 41 41 42 43 42 42 37 38 37 39 44 48 50 51
Wind_Direction
330 326 329 331 329 324 321 311 310 307 309 314 315 316 317 314 313 310 305 304 305 296
335 328 321 316 322 329 331 316 318 317 320 319 319 321 321 314 310 308 303 299 299 300
307 310 312 312 315 322 318 309 311 312 312 309 309 309 308 305 303 301 301 299 296 296
301 311 314 314 313 311 305 307 306 304 300 300 302 300 298 296 295 295 296 297 298 293
308 308 310 313 315 315 315 313 313 313 309 311 314 314 315 314 310 308 297 298 281 297
318 322 325 324 326 327 327 327 325 322 321 319 315 310 310 316 313 307 303 302 303 298
330 334 335 335 337 339 337 334 330 328 326 327 325 322 325 317 310 308 308 307 309 307
338 339 341 340 337 337 334 331 328 331 325 323 326 327 323 317 312 309 306 305 305 304
340 341 341 337 335 334 333 332 337 328 324 331 327 321 315 308 309 307 307 308 304 302
339 339 338 335 334 337 334 332 330 331 335 326 316 321 316 318 313 311 308 307 306 303
336 336 333 334 337 333 328 327 331 330 322 319 319 319 321 320 313 314 311 307 304 301
334 331 330 335 330 327 326 329 332 327 323 323 324 326 319 322 320 315 315 314 311 306
328 327 332 327 326 327 330 331 324 326 330 332 327 331 328 324 318 315 315 314 310 305
330 331 327 326 329 335 332 328 332 333 335 334 334 330 328 326 320 319 317 314 313 309
Height
1546 1546 1545 1543 1541 1539 1536 1533 1530 1528 1525 1522 1520 1517 1515 1512 1509 1506 1504 1501 1499 1496
1546 1545 1543 1541 1537 1534 1532 1530 1527 1524 1521 1518 1515 1513 1510 1507 1504 1501 1499 1495 1493 1490
1544 1541 1538 1536 1533 1531 1528 1525 1522 1519 1516 1513 1510 1508 1505 1501 1498 1495 1491 1488 1485 1483
1540 1538 1535 1533 1530 1527 1525 1522 1519 1515 1512 1508 1504 1501 1497 1494 1491 1487 1483 1479 1476 1473
1537 1534 1532 1530 1527 1523 1520 1517 1513 1509 1505 1502 1497 1493 1489 1485 1482 1478 1475 1470 1466 1463
1534 1531 1528 1525 1522 1519 1515 1512 1508 1504 1499 1495 1491 1487 1483 1480 1475 1470 1467 1462 1458 1453
1531 1528 1525 1522 1519 1515 1511 1507 1503 1499 1494 1490 1486 1482 1478 1474 1468 1463 1458 1454 1450 1446
1528 1526 1522 1519 1515 1511 1508 1503 1499 1494 1490 1486 1481 1477 1473 1468 1461 1455 1449 1445 1441 1438
1526 1523 1519 1515 1511 1507 1503 1498 1493 1489 1484 1479 1476 1472 1467 1462 1454 1447 1442 1436 1431 1427
1523 1519 1516 1512 1507 1502 1497 1493 1488 1483 1478 1474 1469 1465 1459 1453 1446 1439 1433 1428 1423 1417
1520 1516 1512 1508 1503 1498 1493 1488 1482 1477 1473 1467 1462 1456 1450 1444 1436 1430 1424 1418 1413 1408
1517 1513 1509 1504 1499 1495 1489 1483 1477 1473 1467 1460 1453 1448 1442 1435 1428 1420 1413 1408 1402 1398
1514 1510 1506 1501 1496 1491 1485 1479 1473 1466 1460 1454 1447 1441 1435 1430 1422 1413 1405 1397 1390 1385
1511 1507 1502 1497 1492 1486 1480 1474 1466 1459 1453 1447 1441 1433 1429 1423 1415 1407 1397 1389 1379 1371